View from above orbital plane
|
View from above satellite
|
Ground track
|
The orbit data is extracted from the following two-line orbital elements,
1 40461U 95015BD 22221.49004401 .00008224 00000-0 23918-2 0 9997
2 40461 98.8055 317.3188 0041220 275.3559 84.2928 14.44019570392336
Epoch (UTC): | 09 August 2022 11:45:39 |
Eccentricity: | 0.0041220 |
inclination: | 98.8055° |
perigee height: | 716 km |
apogee height: | 774 km |
right ascension of ascending node: | 317.3188° |
argument of perigee: | 275.3559° |
revolutions per day: | 14.44019570 |
mean anomaly at epoch: | 84.2928° |
orbit number at epoch: | 39233 |
The dashed part of the orbit path shows where the satellite is in the earth's shadow,
|
|